FW0378 Weather Reports


time (UTC)temp
F
wind
direction
speed
knots
gust
knots
rain 1hr
in
rain 24hr
in
rain mn
in
humidity
%
barometer
mb
20260906113051 67 21 1.7 3.5 0.00 0.00 0.00 96 1016.1
20260906111503 67 18 0.9 4.3 0.00 0.00 0.00 95 1015.8
20260906110032 67 50 1.7 2.6 0.00 0.00 0.00 95 1015.6
20260906104549 67 28 0.9 2.6 0.00 0.00 0.00 95 1015.5
20260906103105 68 44 0.0 3.5 0.00 0.00 0.00 95 1015.3
20260906101528 68 32 0.9 3.5 0.00 0.00 0.00 95 1015.2
20260906100051 68 52 1.7 3.5 0.00 0.00 0.00 95 1015.1
20260906094507 69 61 0.9 3.5 0.00 0.00 0.00 94 1015.0
20260906093045 69 51 0.9 3.5 0.00 0.00 0.00 94 1014.9
20260906091546 69 78 0.9 2.6 0.00 0.00 0.00 94 1014.9
20260906090009 70 42 0.0 2.6 0.00 0.00 0.00 94 1014.8
20260906084549 70 39 0.0 2.6 0.00 0.00 0.00 93 1014.8
20260906083007 71 38 0.9 3.5 0.00 0.00 0.00 93 1014.8
20260906081532 71 38 2.6 6.1 0.00 0.00 0.00 93 1014.9
20260906080057 71 55 1.7 6.1 0.00 0.00 0.00 93 1014.9
20260906074519 72 19 1.7 5.2 0.00 0.00 0.00 92 1014.8
20260906073055 72 42 1.7 4.3 0.00 0.00 0.00 92 1015.0
20260906071526 72 43 2.6 5.2 0.00 0.00 0.00 92 1015.1
20260906070051 72 47 2.6 7.0 0.00 0.00 0.00 92 1015.1
20260906064513 72 44 2.6 6.1 0.00 0.00 0.00 93 1015.1
20260906063043 72 42 2.6 6.1 0.00 0.00 0.00 93 1015.1
20260906061507 72 20 1.7 4.3 0.00 0.00 0.00 93 1015.1
20260906060031 72 42 1.7 3.5 0.00 0.00 0.00 93 1015.0
20260906054605 72 43 0.0 3.5 0.00 0.00 0.00 93 1014.8
20260906053022 72 37 1.7 3.5 0.00 0.00 0.00 92 1014.8
20260906051547 72 28 1.7 3.5 0.00 0.00 0.00 92 1014.6
20260906050015 72 17 1.7 3.5 0.00 0.00 0.00 92 1014.5
20260906044544 71 57 1.7 4.3 0.00 0.00 0.00 92 1014.4
20260906043103 71 51 0.9 3.5 0.00 0.00 0.00 91 1014.3
20260906041524 71 16 0.9 2.6 0.00 0.00 0.00 90 1014.0
20260906040042 72 40 0.9 2.6 0.00 0.00 0.00 89 1014.0
20260906034559 72 29 1.7 4.3 0.00 0.00 0.00 89 1013.9
20260906034501 72 45 1.7 4.3 0.00 0.00 0.00 89 1014.0
20260906033012 72 37 3.5 6.1 0.00 0.00 0.00 89 1014.0
20260906031538 73 33 2.6 7.8 0.00 0.00 0.00 88 1014.0
20260906030108 73 44 4.3 10.4 0.00 0.00 0.00 88 1014.0
20260906024524 73 53 5.2 11.3 0.00 0.00 0.00 87 1014.2
20260906023053 73 25 6.1 12.2 0.00 0.00 0.00 86 1014.0
20260906021518 73 24 4.3 9.6 0.00 0.00 0.00 86 1014.0
20260906020052 73 355 6.1 10.4 0.00 0.00 0.00 87 1014.0
20260906014512 73 57 4.3 7.8 0.00 0.00 0.00 89 1013.8
20260906013034 74 44 3.5 7.0 0.00 0.00 0.00 88 1013.6
20260906011546 74 69 3.5 7.0 0.00 0.00 0.00 87 1013.6
20260906010003 74 34 2.6 5.2 0.00 0.00 0.00 87 1013.5
20260906004524 75 5 2.6 4.3 0.00 0.00 0.00 86 1013.2
20260906003044 76 44 1.7 4.3 0.00 0.00 0.00 84 1013.0
20260906001556 76 67 3.5 7.0 0.00 0.00 0.00 83 1012.7
20260906000002 77 70 3.5 7.0 0.00 0.00 0.00 82 1012.7
20260905234533 78 44 2.6 6.1 0.00 0.00 0.00 81 1012.8
20260905233042 79 54 6.1 11.3 0.00 0.00 0.00 79 1012.7
20260905231553 79 40 6.1 11.3 0.00 0.00 0.00 79 1012.6
20260905230130 80 51 7.0 12.2 0.00 0.00 0.00 77 1012.3
20260905224518 81 60 7.8 13.0 0.00 0.00 0.00 76 1012.2
20260905223036 82 51 7.8 13.0 0.00 0.00 0.00 75 1012.0
20260905221602 83 355 5.2 10.4 0.00 0.00 0.00 76 1012.0
20260905220026 83 65 5.2 11.3 0.00 0.00 0.00 76 1012.0
20260905214548 82 15 5.2 12.2 0.00 0.00 0.00 75 1011.9
20260905213004 84 63 6.1 13.0 0.00 0.00 0.00 73 1011.6
20260905211531 85 78 7.0 13.0 0.00 0.00 0.00 73 1011.5
20260905210052 85 59 6.1 13.0 0.00 0.00 0.00 72 1011.6
20260905204504 87 17 6.1 12.2 0.00 0.00 0.00 71 1011.5
20260905203034 86 71 6.1 12.2 0.00 0.00 0.00 71 1011.5
20260905201553 87 44 6.1 10.4 0.00 0.00 0.00 70 1011.5
20260905200021 89 351 6.1 9.6 0.00 0.00 0.00 69 1011.5
20260905194540 88 25 3.5 7.0 0.00 0.00 0.00 70 1011.5
20260905193110 87 13 5.2 8.7 0.00 0.00 0.00 71 1011.6
20260905191511 88 51 3.5 9.6 0.00 0.00 0.00 72 1011.6
20260905190034 87 32 4.3 7.8 0.00 0.00 0.00 74 1011.7
20260905184600 88 34 3.5 9.6 0.00 0.00 0.00 73 1011.8
20260905183007 88 39 2.6 6.1 0.00 0.00 0.00 73 1011.9
20260905181539 89 14 2.6 7.8 0.00 0.00 0.00 73 1012.0
20260905174528 89 44 3.5 7.8 0.00 0.00 0.00 73 1012.0
20260905173101 88 38 3.5 9.6 0.00 0.00 0.00 75 1012.0
20260905171533 88 24 3.5 6.1 0.00 0.00 0.00 75 1012.1
20260905170054 88 57 5.2 7.8 0.00 0.00 0.00 76 1012.2
20260905164517 88 5 4.3 7.8 0.00 0.00 0.00 75 1012.3
20260905163042 88 37 4.3 7.0 0.00 0.00 0.00 76 1012.2
20260905161502 88 14 2.6 6.1 0.00 0.00 0.00 77 1012.2
20260905160038 88 36 2.6 6.1 0.00 0.00 0.00 79 1012.1
20260905154502 88 73 2.6 5.2 0.00 0.00 0.00 78 1012.1
20260905153029 87 5 1.7 5.2 0.00 0.00 0.00 79 1012.0
20260905151552 87 347 1.7 5.2 0.00 0.00 0.00 79 1011.9
20260905150002 86 17 2.6 6.1 0.00 0.00 0.00 80 1011.9
20260905144533 85 31 2.6 5.2 0.00 0.00 0.00 81 1011.8
20260905143058 85 31 1.7 5.2 0.00 0.00 0.00 82 1011.7
20260905141524 84 45 0.0 4.3 0.00 0.00 0.00 85 1011.6
20260905140050 83 279 0.9 3.5 0.00 0.00 0.00 89 1011.7
20260905134508 81 279 0.0 2.6 0.00 0.00 0.00 91 1012.1
20260905133042 80 275 0.9 1.7 0.00 0.00 0.00 93 1011.9
20260905131552 79 254 0.9 3.5 0.00 0.00 0.00 94 1011.7
20260905130026 77 238 2.6 4.3 0.00 0.00 0.00 95 1011.4
20260905124544 76 221 1.7 2.6 0.00 0.00 0.00 96 1011.4
20260905123106 75 25 0.0 0.9 0.00 0.00 0.00 96 1011.5
20260905121533 75 24 0.0 0.0 0.00 0.00 0.00 97 1011.2
20260905120055 74 25 0.0 0.0 0.00 0.00 0.00 96 1011.2
20260905114520 74 24 0.0 0.0 0.00 0.00 0.00 96 1011.0